Location: Seagrape Drive
(25.8948°N, 81.3265°W)
Time: 02:58:50
(UTC-04:00)

Hubble Space Telescope - Visible Passes

Search period start: 25 May 2018 00:00
Search period end: 04 June 2018 00:00
Orbit: 537 x 541 km, 28.5° (Epoch: 24 May)

Date Brightness Start Highest point End Pass type
(mag) Time Alt. Az. Time Alt. Az. Time Alt. Az.
25 May 3.1 04:33:30 14° SE 04:33:30 14° SE 04:34:53 10° ESE visible
26 May 3.0 04:23:38 16° SE 04:23:38 16° SE 04:25:07 10° ESE visible
26 May 0.9 05:58:59 10° WSW 06:03:02 67° SSE 06:07:09 10° E visible
27 May 3.0 04:13:45 17° ESE 04:13:45 17° ESE 04:15:08 10° E visible
27 May 0.8 05:49:06 13° WSW 05:52:43 80° SSE 05:56:52 10° ENE visible
28 May 3.1 04:03:50 17° ESE 04:03:50 17° ESE 04:05:02 10° E visible
28 May 0.7 05:39:10 16° WSW 05:42:24 87° N 05:46:33 10° ENE visible
29 May 3.3 03:53:54 16° E 03:53:54 16° E 03:54:52 10° E visible
29 May 0.8 05:29:14 19° W 05:32:05 76° NNW 05:36:15 10° ENE visible
30 May 3.5 03:43:58 14° E 03:43:58 14° E 03:44:38 10° E visible
30 May 0.9 05:19:18 23° W 05:21:49 68° N 05:25:56 10° ENE visible
31 May 3.7 03:34:02 12° E 03:34:02 12° E 03:34:22 10° E visible
31 May 1.1 05:09:22 26° W 05:11:31 63° N 05:15:38 10° ENE visible
01 Jun 1.1 04:59:29 31° WNW 05:01:14 60° N 05:05:20 10° ENE visible
02 Jun 1.2 04:49:38 38° WNW 04:50:58 59° N 04:55:03 10° E visible
03 Jun 1.2 04:39:52 48° NW 04:40:41 59° N 04:44:46 10° E visible
